Location: Rocktram
(38.2574°N, 122.2805°W)
Time: 01:10:58
(UTC+00:00)

Cosmos 2184 Rocket - Pass Details

Date: 30 March 2020
Orbit: 958 x 1003 km, 82.9° (Epoch: 27 May)

Event Time Altitude Azimuth Distance (km) Brightness Sun altitude
Rises 04:06:30 0° 360° (N) 3,718 7.3 -19.2°
Reaches altitude 10° 04:09:12 10° 7° (N) 2,759 6.5 -19.6°
Maximum altitude 04:15:10 42° 77° (ENE) 1,368 4.4 -20.7°
Enters shadow 04:16:25 38° 106° (ESE) 1,454 4.4 -21.0°
